Flag for U.S.A. Weather past 2 weeks in Germantown, Maryland, U.S.A.

Now
39 °F

Clear.


Feels Like: 39 °F
Forecast: 36 / 62 °F
Wind: No wind

Location: Frederick Municipal Airport

Current Time: Oct 20, 2014 at 4:13:20 AM

Latest Report: Oct 20, 2014 at 3:45 AM


Visibility: 10 mi

Pressure: 30.12 "Hg

Humidity: 81%

Dew point: 34 °F

Location of GermantownLocation

Historic Weather in Germantown — Graph

°F

Germantown temperature yesterday

Maximum temperature yesterday: 63 °F (at 2:59 PM)
Minimum temperature yesterday: 46 °F (at 11:20 PM)
Average temperature yesterday: 54 °F

Past Weeks' High & Low Weather Summary

 TemperatureHumidityPressure
High81 °F (Oct 14, 12:48 PM)100% (Oct 6, 1:05 AM)30.33 "Hg (Oct 6, 1:05 AM)
Low37 °F (Oct 5, 3:40 AM)24% (Oct 19, 2:59 PM)29.64 "Hg (Oct 18, 4:55 AM)
Average60 °F79%30.00 "Hg
* Reported Oct 5 2:00 AM — Oct 20 2:25 AM, Germantown, Weather by CustomWeather, © 2014

Note: Actual official high and low records may vary slightly from our data, if they occured in-between our weather recording intervals... More about our weather records

Advertising

Germantown weather history for previous 24 hours

 ConditionsComfort  
Time TempWeatherWind HumidityBarometerVisibility
2:25 AM
Oct 20
43 °FClear.No wind81%30.13 "Hg10 mi
2:05 AM43 °FClear.3 mph81%30.13 "Hg10 mi
1:40 AM41 °FClear.No wind81%30.13 "Hg10 mi
11:20 PM
Oct 19
46 °FClear.3 mph71%30.13 "Hg10 mi
11:00 PM48 °FClear.6 mph66%30.13 "Hg10 mi
10:40 PM50 °FClear.No wind54%30.13 "Hg10 mi
10:20 PM52 °FClear.3 mph47%30.12 "Hg10 mi
10:00 PM52 °FClear.3 mph47%30.12 "Hg10 mi
9:40 PM52 °FClear.3 mph47%30.12 "Hg10 mi
9:20 PM50 °FClear.3 mph58%30.12 "Hg10 mi
9:00 PM50 °FClear.No wind54%30.12 "Hg10 mi
8:40 PM50 °FClear.No wind58%30.12 "Hg10 mi
6:45 PM55 °FSunny.3 mph38%30.09 "Hg10 mi
5:45 PM61 °FSunny.10 mph29%30.08 "Hg10 mi
4:50 PM63 °FSunny.12 mph25%30.07 "Hg10 mi
3:55 PM63 °FSunny.7 mph25%30.07 "Hg10 mi
2:59 PM63 °FSunny.12 mph24%30.07 "Hg10 mi
1:45 PM61 °FSunny.14 mph25%30.08 "Hg10 mi
12:45 PM59 °FSunny.18 mph29%30.10 "Hg10 mi
11:51 AM57 °FSunny.16 mph33%30.11 "Hg10 mi
10:53 AM55 °FScattered clouds.16 mph36%30.11 "Hg10 mi
9:50 AM52 °FScattered clouds.16 mph44%30.10 "Hg10 mi
9:00 AM52 °FScattered clouds.9 mph44%30.09 "Hg10 mi
7:45 AM52 °FPassing clouds.9 mph54%30.05 "Hg10 mi
6:45 AM54 °FPassing clouds.10 mph51%30.00 "Hg10 mi
6:00 AM54 °FMostly cloudy.10 mph51%29.99 "Hg10 mi
5:40 AM54 °FOvercast.9 mph54%29.98 "Hg10 mi
5:20 AM54 °FOvercast.17 mph54%29.97 "Hg10 mi
5:00 AM54 °FOvercast.10 mph54%29.97 "Hg10 mi
4:40 AM55 °FOvercast.12 mph51%29.96 "Hg10 mi
4:20 AM54 °FPartly cloudy.14 mph54%29.95 "Hg10 mi
4:00 AM54 °FPassing clouds.6 mph58%29.95 "Hg10 mi
Weather by CustomWeather, © 2014

See weather overviewHow to use our weather pages